Temperature
18 18 18 17 18 18 18 18 18 18 18 18 18 18 18 17 18 18 18 18 18 18 17 17 17 17 17 17 17 17 17 17 16 16 16 16 16 15 15 15 15 15 15
18 18 18 18 18 18 18 18 18 18 18 18 18 18 18 18 18 18 18 18 18 18 18 18 18 18 17 17 17 17 16 16 16 16 16 16 16 15 15 15 14 14 14
17 17 18 18 18 17 17 17 18 18 18 18 18 18 18 18 18 18 18 18 18 18 18 18 18 18 18 17 17 17 17 16 16 16 16 16 16 15 15 15 15 14 14
18 17 17 18 18 18 18 18 18 18 18 18 19 19 18 18 18 18 18 19 19 18 18 18 17 17 18 17 17 17 17 17 17 16 16 16 16 16 15 15 15 14 14
18 18 17 18 18 18 18 18 18 18 18 18 18 19 18 18 18 18 18 19 19 19 18 18 17 17 17 18 18 18 17 17 17 16 16 16 16 16 15 15 14 14 14
17 17 17 18 18 18 18 18 18 18 18 18 18 18 18 18 18 18 18 19 19 19 19 18 18 17 17 18 18 18 17 17 17 16 16 16 16 16 15 15 15 14 14
17 17 17 17 17 17 18 18 17 18 18 17 18 18 18 18 18 19 18 18 19 19 18 18 18 18 17 18 18 17 17 17 16 16 16 16 16 16 15 15 15 15 14
17 17 17 17 17 17 17 17 17 17 18 18 17 17 17 18 19 19 19 18 19 18 18 18 18 18 18 18 18 17 17 16 16 16 16 16 16 16 15 15 15 15 14
17 17 16 16 17 17 17 17 17 17 17 18 17 17 17 18 18 18 18 18 18 18 18 18 18 18 18 18 18 17 17 17 16 16 16 16 16 16 15 15 15 15 14
17 16 16 16 16 16 16 16 16 16 17 17 17 17 17 17 17 17 18 18 18 18 18 18 18 18 18 18 17 17 17 17 17 16 16 16 16 16 15 15 15 14 14
16 16 16 16 15 15 15 16 16 16 17 17 17 17 17 17 16 16 16 18 18 18 18 18 18 18 18 17 17 17 17 17 17 17 16 16 16 16 15 15 15 15 14
16 15 15 15 15 15 15 16 15 16 16 17 17 17 16 16 16 15 16 16 16 17 17 17 17 18 17 17 17 17 17 17 17 17 16 16 16 16 15 15 15 14 14
15 15 15 14 15 15 14 15 15 14 15 15 15 16 16 16 16 16 15 15 15 16 17 17 17 17 18 17 17 17 17 17 17 17 16 16 16 16 15 15 14 14 14
14 14 14 14 14 14 14 14 14 14 14 14 14 15 15 15 15 15 15 15 15 16 16 16 16 17 17 17 16 16 17 17 16 16 16 16 16 16 15 15 14 14 14
13 14 14 14 14 14 14 14 13 13 13 13 14 14 15 15 15 15 14 15 15 15 15 16 16 16 16 16 16 16 16 16 15 15 15 15 15 15 14 14 14 14 13
13 13 13 13 13 13 13 13 13 14 14 14 13 14 14 14 14 14 15 15 15 15 15 16 16 16 16 16 16 16 16 15 15 15 15 14 15 15 14 14 14 13 13
13 13 13 13 13 13 13 13 13 13 13 13 14 14 14 14 14 15 15 15 14 15 15 15 15 15 15 15 15 15 15 15 14 15 15 15 14 14 14 14 14 14 13
12 12 12 12 12 12 12 12 12 12 12 12 13 13 14 14 14 14 14 14 15 15 14 15 15 15 15 15 15 15 15 15 15 15 15 15 15 15 15 15 15 14 14
12 12 12 12 12 12 12 11 12 12 12 12 12 12 13 13 13 13 13 14 14 14 14 14 15 15 15 15 15 15 15 15 14 15 15 15 14 14 14 15 14 15 15
12 12 12 12 12 12 11 11 12 12 12 12 12 12 12 12 12 12 13 13 13 14 13 14 14 15 15 15 15 15 14 14 14 14 14 14 14 14 14 14 14 14 14
12 12 13 12 11 11 11 11 12 12 12 11 11 12 12 11 12 12 12 12 13 13 13 13 14 14 14 14 14 15 14 14 14 14 14 14 14 15 15 15 15 16 15
12 12 13 12 11 12 12 11 11 11 11 11 11 11 11 11 11 11 11 11 11 11 12 12 12 13 13 13 14 14 13 14 14 13 14 14 14 15 14 15 15 15 16
12 12 12 12 12 12 12 12 12 12 11 11 11 11 11 11 11 11 11 11 11 11 11 12 12 12 12 12 12 12 12 13 13 13 13 14 14 15 15 15 15 15 16
11 12 12 11 12 12 12 12 12 12 11 11 11 11 11 11 11 11 11 11 11 11 11 11 11 12 12 12 12 12 12 12 12 12 13 13 13 14 14 14 14 14 15
11 11 11 11 11 12 11 11 11 11 11 11 11 11 11 11 11 11 12 12 12 12 12 12 12 12 12 12 12 12 12 12 12 12 12 12 12 12 13 13 13 14 14
11 11 11 11 11 11 11 11 11 11 11 11 11 11 11 11 11 12 11 12 12 12 12 12 12 12 12 12 12 12 12 12 12 12 12 12 12 12 12 12 12 12 13
Wind_Speed
4 5 4 7 8 9 7 6 6 6 6 9 10 9 9 10 13 13 14 19 20 21 23 21 19 18 17 17 16 18 19 20 20 21 21 22 23 24 23 22 21 19 18
6 4 3 4 6 9 10 7 6 5 5 5 6 7 7 10 11 12 14 16 18 19 20 21 19 17 17 17 17 19 20 20 20 19 20 22 23 24 25 24 23 21 20
8 5 5 4 5 8 7 7 7 6 6 6 7 7 6 8 8 10 12 13 15 18 20 21 20 18 18 17 17 17 17 17 18 18 19 21 22 25 27 27 25 23 22
10 6 5 5 6 6 4 4 5 5 6 6 6 7 7 6 8 9 11 11 12 13 16 20 22 21 19 18 17 17 17 17 18 19 20 20 21 25 28 27 26 26 24
4 5 5 5 7 5 5 4 5 5 5 6 6 6 6 7 8 7 7 8 11 11 12 16 19 20 19 18 18 18 18 19 18 18 19 19 21 23 27 27 28 26 25
5 5 4 5 5 5 6 5 6 6 6 6 5 5 5 7 6 7 7 4 7 10 11 13 14 16 20 19 18 18 19 20 20 19 16 16 18 22 27 28 29 28 27
7 5 6 6 6 7 8 8 5 6 6 4 2 3 5 7 7 6 5 4 4 7 9 9 11 12 13 16 18 19 18 18 20 20 17 14 15 20 25 29 30 29 28
6 6 7 8 8 8 8 8 7 5 5 6 4 2 2 4 5 3 4 4 4 5 7 7 8 9 11 12 15 18 19 17 18 19 17 14 15 18 25 29 31 31 30
6 7 7 8 9 8 8 9 9 9 6 5 6 4 4 4 2 3 3 4 3 4 7 4 6 9 11 11 13 13 14 13 15 15 14 14 14 16 23 30 32 33 32
6 8 7 7 7 6 7 8 8 7 6 5 5 6 4 4 3 3 4 3 2 5 6 4 5 8 10 9 11 10 9 11 11 12 14 14 14 16 22 30 33 36 34
6 7 6 4 4 4 6 7 7 8 8 6 5 3 4 4 4 5 5 4 3 5 4 6 7 6 8 8 6 6 6 9 11 12 15 16 15 16 20 29 35 36 34
4 6 6 4 3 4 4 4 3 5 5 4 3 4 4 4 5 5 5 3 4 4 4 5 7 8 6 7 6 4 5 7 9 11 15 17 18 18 18 26 36 34 34
3 4 4 3 2 2 3 3 3 3 3 3 4 4 4 4 3 3 3 3 4 2 3 5 5 5 4 4 3 2 2 5 8 10 11 11 12 18 22 29 33 31 31
3 4 2 2 3 2 2 3 2 3 3 4 5 3 3 3 2 3 3 2 2 2 2 5 3 2 2 3 2 1 2 4 6 7 4 3 4 18 24 26 26 27 28
2 4 3 1 1 1 2 3 2 3 3 4 3 3 3 3 4 4 4 5 4 1 3 4 4 3 3 3 2 2 2 3 5 5 1 5 8 13 16 17 20 22 25
2 3 2 1 1 2 2 1 1 1 1 3 3 1 1 2 5 4 1 2 4 4 6 4 3 3 2 1 3 4 5 4 3 3 6 9 10 12 14 18 20 22 22
4 3 3 2 1 1 1 2 3 3 2 3 5 4 1 1 1 3 4 2 3 6 5 4 3 3 3 3 3 4 6 4 4 6 9 12 13 15 17 21 22 21 18
3 2 3 3 4 4 3 4 5 3 2 3 4 1 3 5 5 5 4 4 3 3 4 4 3 3 5 4 4 4 3 4 5 7 9 13 16 18 20 22 21 19 18
4 3 3 2 2 2 2 3 3 2 3 2 3 5 5 5 4 4 4 4 3 3 2 3 4 3 4 3 2 2 2 1 4 6 9 12 14 14 16 17 16 14 15
6 5 5 5 5 5 5 5 6 6 5 5 5 6 5 4 4 5 5 5 6 5 3 2 3 3 4 3 2 2 2 2 2 2 6 10 13 15 17 18 16 15 15
6 6 6 6 6 6 5 5 6 6 5 5 6 6 7 9 9 6 4 6 7 5 4 3 3 3 2 2 1 2 2 1 1 0 2 3 5 7 9 13 15 17 19
6 7 6 6 6 6 7 8 7 7 7 7 6 7 7 9 9 7 6 6 6 5 5 3 3 3 4 3 2 1 1 2 1 0 2 2 4 4 5 7 12 17 21
5 6 6 6 6 6 7 7 8 7 7 7 7 7 7 9 9 7 9 10 10 9 7 3 3 4 3 4 3 2 1 0 1 1 2 2 3 4 4 5 9 15 17
4 4 6 5 6 8 8 9 8 8 8 7 6 6 8 10 12 10 9 9 8 7 7 4 3 2 2 4 3 1 1 1 2 2 3 0 1 2 4 2 4 6 10
4 5 5 5 8 9 8 7 7 5 6 6 6 7 8 9 10 10 9 9 9 9 7 6 7 7 5 4 5 3 3 3 2 2 2 1 0 0 2 3 4 5 7
6 6 6 5 8 9 11 11 5 4 3 4 5 7 9 10 11 13 10 9 10 10 9 7 6 6 6 6 4 3 1 1 0 1 1 0 1 1 1 1 3 4 3
Wind_Direction
219 224 217 233 224 223 240 236 235 237 233 238 236 233 241 238 238 237 239 245 241 239 239 244 243 246 252 255 254 253 253 251 249 245 240 237 228 209 195 199 200 195 189
222 218 199 210 219 222 234 231 225 225 234 231 234 235 238 244 243 238 240 244 246 238 235 241 240 239 247 253 252 250 250 250 250 247 245 240 230 213 198 196 199 195 191
225 213 214 220 223 235 246 242 237 224 237 231 239 253 252 256 248 246 246 243 242 237 232 238 241 237 242 250 252 256 259 260 260 258 252 243 230 215 201 195 195 193 192
223 218 222 234 248 260 249 236 242 236 239 236 236 247 246 245 253 246 246 245 238 235 236 239 240 238 240 249 257 260 260 260 258 257 254 248 234 215 201 197 193 191 188
239 213 231 236 241 241 245 239 237 226 250 252 248 247 246 241 242 245 246 246 247 238 231 236 237 236 240 248 252 257 257 260 263 261 256 253 236 219 205 198 194 188 184
211 202 226 240 242 247 243 236 241 227 231 242 250 261 261 255 242 242 247 246 256 257 243 229 230 232 240 243 248 253 255 257 262 263 260 261 240 219 206 198 192 186 178
242 234 238 241 231 231 236 228 229 230 231 219 218 272 267 259 251 240 245 257 271 279 263 235 220 224 232 238 248 249 249 251 258 262 257 257 246 221 206 197 190 182 174
297 269 245 243 239 232 240 241 228 225 218 185 176 181 271 302 282 242 221 233 262 290 279 254 228 228 235 242 246 248 256 254 257 261 255 251 245 223 205 197 188 178 170
310 290 262 251 242 230 231 230 230 224 225 204 195 178 177 225 290 295 243 217 229 262 267 262 256 258 259 260 259 257 267 269 265 259 255 253 242 228 207 196 186 173 169
328 311 283 266 255 244 239 234 224 210 195 205 205 211 199 184 179 280 290 257 248 246 249 251 258 270 272 261 257 255 265 269 263 261 266 262 243 229 208 195 183 172 170
329 332 318 317 314 295 269 248 222 211 200 193 187 185 213 219 209 207 256 302 312 270 249 232 246 273 276 258 246 248 258 276 273 274 274 262 244 233 213 195 179 173 171
331 346 343 352 8 2 339 296 251 232 217 202 197 192 189 191 209 203 233 273 271 267 270 242 248 254 246 233 223 248 287 291 292 292 280 262 240 226 208 190 177 175 174
328 318 340 357 44 50 34 30 20 343 355 317 259 232 225 223 205 205 196 241 262 305 326 291 261 238 209 186 209 268 312 327 317 313 291 267 242 203 175 179 180 176 177
300 315 335 16 39 28 19 33 27 10 1 321 301 316 323 324 313 234 181 196 265 313 310 279 296 241 206 173 186 124 47 348 349 353 308 260 191 165 169 179 176 174 176
327 1 357 331 5 26 45 56 2 50 11 321 322 32 13 330 295 255 214 198 185 208 269 260 257 237 206 171 127 120 105 41 30 19 92 127 119 128 143 156 164 167 163
285 316 346 348 338 60 58 28 352 4 27 301 306 326 309 334 318 307 254 181 161 200 243 239 259 249 220 131 138 137 129 109 110 120 130 124 128 134 141 144 145 149 163
272 288 292 290 299 325 1 307 310 297 270 265 272 280 271 115 326 355 352 338 195 200 216 252 247 232 208 185 157 158 150 170 202 188 160 150 152 158 159 154 156 161 176
291 274 278 306 322 319 334 306 294 295 266 252 239 198 46 49 28 7 338 333 338 270 223 248 260 231 221 199 186 184 173 184 216 212 186 175 172 176 176 173 175 181 180
69 48 60 58 31 34 29 356 342 1 3 56 67 51 39 43 28 358 351 347 330 308 263 243 257 241 236 203 197 190 177 187 238 199 179 187 188 184 188 193 192 190 186
92 72 58 55 47 35 28 22 39 49 53 59 57 59 46 30 14 356 2 0 353 356 344 311 285 274 253 235 175 167 167 205 233 168 169 183 191 194 196 201 206 209 209
85 74 63 48 35 31 13 11 49 52 52 69 57 44 28 11 4 353 360 359 354 359 349 346 338 340 327 322 254 168 147 172 34 288 125 142 166 179 192 202 206 214 215
97 83 71 52 29 13 5 56 74 68 56 64 51 29 15 4 356 5 352 349 344 359 360 352 341 352 353 340 337 357 155 129 125 166 111 156 158 165 173 189 205 214 212
113 104 89 62 32 6 17 67 78 75 69 66 61 43 34 17 20 32 27 21 9 16 25 25 23 352 340 349 343 349 13 148 215 163 108 162 178 168 155 186 207 220 218
103 104 86 65 41 7 21 79 83 83 73 64 62 60 49 34 28 37 38 20 1 353 352 4 22 337 330 335 346 339 357 46 34 20 47 171 172 167 158 192 228 202 204
99 104 96 66 52 19 27 91 92 84 75 46 19 22 38 44 25 33 40 20 10 359 345 331 292 274 280 350 4 6 27 41 5 343 5 94 165 173 173 188 207 215 211
107 103 91 67 61 40 30 37 65 94 75 39 17 15 28 39 42 36 34 21 19 353 350 11 3 335 328 339 13 63 64 66 41 297 264 116 337 46 329 143 159 180 187
Height
1550 1550 1550 1550 1550 1549 1549 1549 1549 1549 1548 1548 1547 1546 1545 1544 1543 1543 1542 1542 1542 1542 1542 1542 1542 1541 1541 1540 1539 1538 1538 1537 1537 1537 1537 1538 1538 1538 1539 1542 1543 1543 1545
1549 1549 1548 1548 1547 1546 1546 1546 1547 1546 1545 1544 1544 1543 1543 1543 1541 1540 1539 1539 1539 1539 1539 1539 1539 1538 1536 1536 1535 1533 1533 1533 1532 1532 1531 1531 1533 1535 1535 1538 1539 1540 1541
1547 1546 1546 1545 1545 1544 1544 1543 1543 1543 1542 1541 1540 1541 1541 1540 1539 1538 1536 1536 1535 1534 1535 1536 1536 1535 1533 1532 1531 1530 1529 1528 1527 1527 1526 1526 1527 1530 1530 1532 1534 1536 1537
1546 1544 1544 1543 1542 1541 1540 1540 1540 1539 1539 1539 1537 1537 1537 1537 1537 1535 1534 1533 1533 1532 1532 1532 1532 1531 1530 1528 1529 1528 1526 1524 1523 1522 1521 1521 1522 1523 1524 1527 1529 1531 1533
1544 1541 1540 1539 1538 1537 1536 1536 1536 1535 1535 1535 1534 1533 1534 1534 1533 1532 1531 1531 1530 1530 1529 1529 1528 1527 1526 1525 1525 1525 1524 1522 1520 1519 1518 1517 1517 1519 1520 1522 1525 1527 1529
1540 1538 1536 1535 1534 1533 1532 1532 1531 1531 1530 1530 1530 1529 1529 1529 1528 1528 1527 1527 1526 1526 1526 1525 1525 1524 1523 1522 1522 1522 1521 1520 1518 1516 1514 1513 1512 1513 1514 1517 1519 1522 1524
1535 1533 1530 1530 1529 1528 1527 1526 1525 1524 1524 1525 1525 1524 1524 1523 1523 1522 1523 1522 1522 1522 1521 1521 1521 1521 1519 1518 1518 1517 1516 1515 1514 1512 1509 1507 1506 1507 1509 1510 1514 1517 1519
1530 1528 1524 1524 1522 1520 1520 1519 1519 1518 1517 1519 1519 1518 1517 1519 1518 1517 1517 1517 1517 1518 1518 1518 1517 1517 1516 1515 1514 1513 1512 1511 1509 1507 1505 1502 1502 1501 1502 1505 1508 1511 1514
1523 1521 1517 1515 1514 1513 1512 1512 1511 1510 1510 1512 1514 1514 1512 1511 1513 1513 1512 1512 1511 1513 1515 1514 1514 1513 1513 1512 1511 1509 1508 1506 1504 1502 1500 1497 1496 1496 1497 1499 1503 1505 1507
1516 1513 1509 1508 1507 1506 1505 1504 1504 1503 1504 1506 1508 1508 1508 1509 1509 1508 1508 1507 1506 1508 1509 1509 1509 1508 1508 1507 1506 1505 1504 1502 1499 1496 1493 1491 1490 1490 1492 1494 1497 1500 1504
1511 1507 1504 1502 1501 1500 1499 1498 1497 1497 1498 1500 1502 1502 1504 1504 1503 1504 1503 1500 1500 1502 1504 1504 1503 1503 1503 1502 1501 1501 1499 1497 1494 1490 1488 1486 1485 1486 1487 1490 1492 1497 1501
1507 1504 1501 1499 1497 1496 1495 1493 1491 1492 1493 1495 1497 1498 1498 1499 1499 1498 1498 1496 1496 1496 1498 1498 1498 1498 1498 1498 1497 1496 1495 1492 1489 1485 1483 1480 1479 1480 1483 1487 1490 1493 1498
1504 1501 1499 1498 1496 1494 1492 1490 1488 1489 1491 1492 1494 1495 1495 1495 1496 1496 1494 1494 1493 1492 1492 1494 1493 1492 1493 1493 1493 1492 1490 1488 1484 1480 1478 1475 1474 1476 1480 1485 1488 1491 1498
1502 1499 1497 1496 1495 1493 1491 1490 1489 1488 1488 1489 1490 1491 1491 1492 1492 1490 1489 1490 1489 1488 1488 1490 1489 1489 1488 1489 1488 1488 1486 1484 1480 1477 1477 1474 1473 1472 1476 1483 1489 1492 1496
1499 1498 1496 1495 1494 1492 1491 1490 1490 1488 1488 1489 1489 1489 1488 1489 1489 1487 1486 1487 1487 1486 1485 1487 1488 1486 1485 1485 1485 1485 1482 1480 1478 1479 1479 1478 1476 1476 1478 1483 1487 1489 1491
1499 1497 1495 1494 1493 1491 1490 1490 1491 1490 1488 1487 1488 1487 1487 1486 1487 1486 1485 1484 1483 1485 1483 1483 1483 1482 1482 1482 1482 1481 1479 1478 1478 1478 1479 1478 1477 1478 1480 1481 1485 1488 1494
1498 1496 1495 1493 1491 1490 1490 1490 1488 1489 1489 1487 1487 1487 1486 1485 1485 1484 1482 1480 1482 1483 1479 1478 1479 1479 1478 1479 1479 1478 1478 1478 1478 1478 1478 1477 1477 1479 1481 1482 1486 1491 1496
1497 1495 1494 1492 1490 1490 1489 1489 1488 1487 1488 1487 1486 1485 1484 1483 1483 1481 1481 1480 1478 1478 1476 1474 1475 1476 1476 1475 1476 1476 1477 1477 1479 1479 1478 1478 1479 1481 1484 1486 1489 1493 1497
1496 1495 1493 1492 1490 1489 1488 1488 1488 1486 1486 1486 1485 1483 1482 1482 1481 1479 1477 1476 1474 1473 1472 1472 1472 1473 1473 1471 1472 1472 1474 1476 1478 1479 1479 1480 1481 1483 1486 1489 1491 1494 1497
1497 1496 1494 1492 1490 1489 1488 1488 1487 1486 1486 1486 1484 1482 1481 1480 1479 1477 1475 1473 1470 1470 1471 1470 1468 1468 1468 1468 1468 1469 1472 1475 1476 1476 1478 1480 1481 1483 1485 1487 1489 1492 1494
1497 1496 1495 1493 1491 1490 1490 1489 1488 1487 1487 1486 1485 1482 1480 1480 1478 1476 1474 1472 1471 1468 1469 1469 1467 1465 1464 1465 1465 1466 1469 1473 1473 1474 1476 1477 1479 1480 1482 1484 1486 1489 1491
1497 1497 1497 1495 1494 1493 1492 1490 1489 1488 1487 1486 1485 1483 1482 1481 1480 1478 1477 1474 1473 1470 1468 1468 1467 1465 1463 1463 1463 1464 1466 1469 1469 1471 1473 1475 1476 1478 1479 1482 1484 1485 1486
1499 1499 1498 1497 1497 1496 1494 1493 1491 1490 1489 1488 1488 1487 1486 1484 1481 1480 1478 1476 1475 1472 1470 1468 1466 1467 1465 1464 1463 1464 1465 1466 1468 1468 1470 1472 1473 1474 1476 1478 1480 1482 1483
1500 1499 1499 1498 1498 1497 1496 1495 1494 1493 1492 1491 1491 1490 1488 1486 1483 1482 1481 1479 1477 1476 1473 1470 1469 1469 1467 1466 1466 1465 1465 1466 1467 1466 1467 1469 1470 1471 1472 1474 1474 1476 1479
1499 1500 1500 1500 1499 1498 1497 1497 1497 1496 1494 1493 1493 1492 1491 1489 1488 1487 1485 1482 1480 1478 1475 1473 1473 1473 1472 1469 1468 1467 1466 1466 1465 1465 1465 1466 1465 1466 1466 1468 1471 1471 1472
1499 1500 1501 1501 1500 1499 1498 1498 1497 1497 1497 1496 1495 1494 1493 1491 1490 1488 1486 1484 1482 1479 1477 1477 1476 1476 1475 1472 1471 1469 1467 1466 1465 1465 1464 1463 1462 1462 1463 1464 1466 1467 1469